owner,sensor,date,latitude,longitude,vertical_datum,direction_of_sea_water_velocity,sea_water_speed,upward_sea_water_velocity,qcFlag 
ADCP,ioos:station:wmo:42890:1,2011-01-01T00:04:00Z,27.6250,-90.4410,15.2,9.0,9.1,-9999.0,'11133222,11111222,99999999' 
ADCP,ioos:station:wmo:42890:1,2011-01-01T00:24:00Z,27.6250,-90.4410,15.2,11.0,9.4,-9999.0,'11133222,11111222,99999999' 
ADCP,ioos:station:wmo:42890:1,2011-01-01T00:44:00Z,27.6250,-90.4410,15.2,12.0,9.7,-99999.0,'1111122,1111122,1199999999' 
ADCP,ioos:station:wmo:42890:1,2011-01-01T01:04:00Z,27.6250,-90.4410,15.2,358.0,10.6,-9999.0,'11111222,11111222,99999999' 
ADCP,ioos:station:wmo:42890:1,2011-01-01T01:24:00Z,27.6250,-90.4410,15.2,7.0,12.0,-9999.0,'11111222,11111222,99999999' 
ADCP,ioos:station:wmo:42890:1,2011-01-01T01:44:00Z,27.6250,-90.4410,15.2,16.0,14.1,-99999.0,'1111122,1111122,1199999999' 
ADCP,ioos:station:wmo:42890:1,2011-01-01T02:04:00Z,27.6250,-90.4410,15.2,13.0,15.2,-9999.0,'11111222,11111222,99999999' 
ADCP,ioos:station:wmo:42890:1,2011-01-01T02:24:00Z,27.6250,-90.4410,15.2,19.0,16.1,-9999.0,'11111222,11111222,99999999' 
ADCP,ioos:station:wmo:42890:1,2011-01-01T02:44:00Z,27.6250,-90.4410,15.2,25.0,18.7,-9999.0,'11111222,11111222,99999999' 
ADCP,ioos:station:wmo:42890:1,2011-01-01T03:04:00Z,27.6250,-90.4410,15.2,17.0,20.5,-9999.0,'11111222,11111222,99999999' 
ADCP,ioos:station:wmo:42890:1,2011-01-01T03:24:00Z,27.6250,-90.4410,15.2,10.0,21.3,-9999.0,'11111222,11111222,99999999' 
ADCP,ioos:station:wmo:42890:1,2011-01-01T03:44:00Z,27.6250,-90.4410,15.2,18.0,22.7,-99999.0,'1111122,1111122,1199999999' 
ADCP,ioos:station:wmo:42890:1,2011-01-01T04:04:00Z,27.6250,-90.4410,15.2,21.0,23.1,-9999.0,'11111222,11111222,99999999' 
ADCP,ioos:station:wmo:42890:1,2011-01-01T04:24:00Z,27.6250,-90.4410,15.2,18.0,25.5,-9999.0,'11111222,11111222,99999999' 
ADCP,ioos:station:wmo:42890:1,2011-01-01T04:44:00Z,27.6250,-90.4410,15.2,22.0,26.6,-9999.0,'11111222,11111222,99999999' 
ADCP,ioos:station:wmo:42890:1,2011-01-01T05:04:00Z,27.6250,-90.4410,15.2,24.0,28.4,-9999.0,'11111222,11111222,99999999' 
ADCP,ioos:station:wmo:42890:1,2011-01-01T05:24:00Z,27.6250,-90.4410,15.2,30.0,28.5,-9999.0,'11111222,11111222,99999999' 
ADCP,ioos:station:wmo:42890:1,2011-01-01T05:44:00Z,27.6250,-90.4410,15.2,26.0,26.9,-99999.0,'1111122,1111122,1199999999' 
ADCP,ioos:station:wmo:42890:1,2011-01-01T06:04:00Z,27.6250,-90.4410,15.2,32.0,29.4,-9999.0,'11111222,11111222,99999999' 
ADCP,ioos:station:wmo:42890:1,2011-01-01T06:24:00Z,27.6250,-90.4410,15.2,33.0,30.0,-9999.0,'11111222,11111222,99999999' 
ADCP,ioos:station:wmo:42890:1,2011-01-01T06:44:00Z,27.6250,-90.4410,15.2,37.0,32.5,-99999.0,'1111122,1111122,1199999999' 
ADCP,ioos:station:wmo:42890:1,2011-01-01T07:04:00Z,27.6250,-90.4410,15.2,36.0,31.8,-9999.0,'11111222,11111222,99999999' 
ADCP,ioos:station:wmo:42890:1,2011-01-01T07:24:00Z,27.6250,-90.4410,15.2,37.0,32.7,-9999.0,'11111222,11111222,99999999' 
ADCP,ioos:station:wmo:42890:1,2011-01-01T07:44:00Z,27.6250,-90.4410,15.2,41.0,34.7,-99999.0,'1111122,1111122,1199999999' 
ADCP,ioos:station:wmo:42890:1,2011-01-01T08:04:00Z,27.6250,-90.4410,15.2,40.0,35.0,-9999.0,'11111222,11111222,99999999' 
ADCP,ioos:station:wmo:42890:1,2011-01-01T08:24:00Z,27.6250,-90.4410,15.2,41.0,35.2,-9999.0,'11111222,11111222,99999999' 
ADCP,ioos:station:wmo:42890:1,2011-01-01T08:44:00Z,27.6250,-90.4410,15.2,42.0,33.5,-9999.0,'11111222,11111222,99999999' 
ADCP,ioos:station:wmo:42890:1,2011-01-01T09:04:00Z,27.6250,-90.4410,15.2,44.0,34.2,-9999.0,'11111222,11111222,99999999' 
ADCP,ioos:station:wmo:42890:1,2011-01-01T09:24:00Z,27.6250,-90.4410,15.2,40.0,36.1,-9999.0,'11111222,11111222,99999999' 
ADCP,ioos:station:wmo:42890:1,2011-01-01T09:44:00Z,27.6250,-90.4410,15.2,47.0,33.8,-99999.0,'1111122,1111122,1199999999' 
ADCP,ioos:station:wmo:42890:1,2011-01-01T10:04:00Z,27.6250,-90.4410,15.2,45.0,30.8,-9999.0,'11111222,11111222,99999999' 
ADCP,ioos:station:wmo:42890:1,2011-01-01T10:24:00Z,27.6250,-90.4410,15.2,56.0,30.1,-9999.0,'11111222,11111222,99999999' 
ADCP,ioos:station:wmo:42890:1,2011-01-01T10:44:00Z,27.6250,-90.4410,15.2,49.0,25.5,-9999.0,'11111222,11111222,99999999' 
ADCP,ioos:station:wmo:42890:1,2011-01-01T11:04:00Z,27.6250,-90.4410,15.2,54.0,26.8,-9999.0,'11111222,11111222,99999999' 
ADCP,ioos:station:wmo:42890:1,2011-01-01T11:24:00Z,27.6250,-90.4410,15.2,58.0,27.3,-9999.0,'11111222,11111222,99999999' 
ADCP,ioos:station:wmo:42890:1,2011-01-01T11:44:00Z,27.6250,-90.4410,15.2,65.0,19.0,-9999.0,'11111222,11111222,99999999' 
ADCP,ioos:station:wmo:42890:1,2011-01-01T12:04:00Z,27.6250,-90.4410,15.2,70.0,27.1,-9999.0,'11111222,11111222,99999999' 
ADCP,ioos:station:wmo:42890:1,2011-01-01T12:24:00Z,27.6250,-90.4410,15.2,80.0,28.6,-9999.0,'11111222,11111222,99999999' 
ADCP,ioos:station:wmo:42890:1,2011-01-01T12:44:00Z,27.6250,-90.4410,15.2,82.0,29.5,-99999.0,'1111122,1111122,1199999999' 
ADCP,ioos:station:wmo:42890:1,2011-01-01T13:04:00Z,27.6250,-90.4410,15.2,81.0,28.6,-9999.0,'11111222,11111222,99999999' 
ADCP,ioos:station:wmo:42890:1,2011-01-01T13:24:00Z,27.6250,-90.4410,15.2,83.0,28.2,-9999.0,'11111222,11111222,99999999' 
ADCP,ioos:station:wmo:42890:1,2011-01-01T13:44:00Z,27.6250,-90.4410,15.2,83.0,28.1,-99999.0,'1111122,1111122,1199999999' 
ADCP,ioos:station:wmo:42890:1,2011-01-01T14:04:00Z,27.6250,-90.4410,15.2,88.0,29.3,-9999.0,'11111222,11111222,99999999' 
ADCP,ioos:station:wmo:42890:1,2011-01-01T14:24:00Z,27.6250,-90.4410,15.2,90.0,30.2,-9999.0,'11111222,11111222,99999999' 
ADCP,ioos:station:wmo:42890:1,2011-01-01T14:44:00Z,27.6250,-90.4410,15.2,89.0,29.4,-99999.0,'1111122,1111122,1199999999' 
ADCP,ioos:station:wmo:42890:1,2011-01-01T15:04:00Z,27.6250,-90.4410,15.2,89.0,30.0,-9999.0,'11111222,11111222,99999999' 
ADCP,ioos:station:wmo:42890:1,2011-01-01T15:24:00Z,27.6250,-90.4410,15.2,90.0,29.5,-9999.0,'11111222,11111222,99999999' 
ADCP,ioos:station:wmo:42890:1,2011-01-01T15:44:00Z,27.6250,-90.4410,15.2,94.0,29.5,-99999.0,'1111122,1111122,1199999999' 
ADCP,ioos:station:wmo:42890:1,2011-01-01T16:04:00Z,27.6250,-90.4410,15.2,94.0,31.6,-9999.0,'11111222,11111222,99999999' 
ADCP,ioos:station:wmo:42890:1,2011-01-01T16:24:00Z,27.6250,-90.4410,15.2,100.0,30.9,-9999.0,'11111222,11111222,99999999' 
ADCP,ioos:station:wmo:42890:1,2011-01-01T16:44:00Z,27.6250,-90.4410,15.2,102.0,32.0,-9999.0,'11111222,11111222,99999999' 
ADCP,ioos:station:wmo:42890:1,2011-01-01T17:04:00Z,27.6250,-90.4410,15.2,105.0,31.8,-9999.0,'11111222,11111222,99999999' 
ADCP,ioos:station:wmo:42890:1,2011-01-01T17:24:00Z,27.6250,-90.4410,15.2,108.0,31.1,-9999.0,'11111222,11111222,99999999' 
ADCP,ioos:station:wmo:42890:1,2011-01-01T17:44:00Z,27.6250,-90.4410,15.2,109.0,31.8,-9999.0,'11111222,11111222,99999999' 
ADCP,ioos:station:wmo:42890:1,2011-01-01T18:04:00Z,27.6250,-90.4410,15.2,113.0,30.3,-9999.0,'11111222,11111222,99999999' 
ADCP,ioos:station:wmo:42890:1,2011-01-01T18:24:00Z,27.6250,-90.4410,15.2,114.0,29.8,-9999.0,'11111222,11111222,99999999' 
ADCP,ioos:station:wmo:42890:1,2011-01-01T18:44:00Z,27.6250,-90.4410,15.2,116.0,29.8,-99999.0,'1111122,1111122,1199999999' 
ADCP,ioos:station:wmo:42890:1,2011-01-01T19:04:00Z,27.6250,-90.4410,15.2,119.0,29.1,-9999.0,'11111222,11111222,99999999' 
ADCP,ioos:station:wmo:42890:1,2011-01-01T19:24:00Z,27.6250,-90.4410,15.2,122.0,28.3,-9999.0,'11111222,11111222,99999999' 
ADCP,ioos:station:wmo:42890:1,2011-01-01T19:44:00Z,27.6250,-90.4410,15.2,127.0,23.9,-9999.0,'11111222,11111222,99999999' 
ADCP,ioos:station:wmo:42890:1,2011-01-01T20:04:00Z,27.6250,-90.4410,15.2,136.0,17.8,-9999.0,'11111222,11111222,99999999' 
ADCP,ioos:station:wmo:42890:1,2011-01-01T20:24:00Z,27.6250,-90.4410,15.2,166.0,13.2,-9999.0,'11111222,11111222,99999999' 
ADCP,ioos:station:wmo:42890:1,2011-01-01T20:44:00Z,27.6250,-90.4410,15.2,190.0,13.3,-9999.0,'11111222,11111222,99999999' 
ADCP,ioos:station:wmo:42890:1,2011-01-01T21:04:00Z,27.6250,-90.4410,15.2,211.0,15.1,-9999.0,'11111222,11111222,99999999' 
ADCP,ioos:station:wmo:42890:1,2011-01-01T21:24:00Z,27.6250,-90.4410,15.2,181.0,15.3,-9999.0,'11111222,11111222,99999999' 
ADCP,ioos:station:wmo:42890:1,2011-01-01T21:44:00Z,27.6250,-90.4410,15.2,179.0,16.5,-9999.0,'11111222,11111222,99999999' 
ADCP,ioos:station:wmo:42890:1,2011-01-01T22:04:00Z,27.6250,-90.4410,15.2,174.0,16.2,-9999.0,'11111222,11111222,99999999' 
ADCP,ioos:station:wmo:42890:1,2011-01-01T22:24:00Z,27.6250,-90.4410,15.2,173.0,16.5,-9999.0,'11111222,11111222,99999999' 
ADCP,ioos:station:wmo:42890:1,2011-01-01T22:44:00Z,27.6250,-90.4410,15.2,180.0,19.7,-9999.0,'11111222,11111222,99999999' 
ADCP,ioos:station:wmo:42890:1,2011-01-01T23:04:00Z,27.6250,-90.4410,15.2,185.0,22.0,-9999.0,'11111222,11111222,99999999' 
ADCP,ioos:station:wmo:42890:1,2011-01-01T23:24:00Z,27.6250,-90.4410,15.2,179.0,22.1,-9999.0,'11111222,11111222,99999999' 
ADCP,ioos:station:wmo:42890:1,2011-01-01T23:44:00Z,27.6250,-90.4410,15.2,181.0,23.3,-99999.0,'1111122,1111122,1199999999' 
ADCP,ioos:station:wmo:42890:1,2011-01-02T00:04:00Z,27.6250,-90.4410,15.2,175.0,21.4,-9999.0,'11111222,11111222,99999999' 
ADCP,ioos:station:wmo:42890:1,2011-01-02T00:24:00Z,27.6250,-90.4410,15.2,162.0,20.4,-9999.0,'11111222,11111222,99999999' 
ADCP,ioos:station:wmo:42890:1,2011-01-02T00:44:00Z,27.6250,-90.4410,15.2,168.0,19.3,-99999.0,'1111122,1111122,1199999999' 
ADCP,ioos:station:wmo:42890:1,2011-01-02T01:04:00Z,27.6250,-90.4410,15.2,178.0,18.2,-9999.0,'11111222,11111222,99999999' 
ADCP,ioos:station:wmo:42890:1,2011-01-02T01:24:00Z,27.6250,-90.4410,15.2,173.0,19.6,-9999.0,'11111222,11111222,99999999' 
ADCP,ioos:station:wmo:42890:1,2011-01-02T01:44:00Z,27.6250,-90.4410,15.2,169.0,17.9,-9999.0,'11111222,11111222,99999999' 
ADCP,ioos:station:wmo:42890:1,2011-01-02T02:04:00Z,27.6250,-90.4410,15.2,187.0,16.7,-9999.0,'11111222,11111222,99999999' 
ADCP,ioos:station:wmo:42890:1,2011-01-02T02:24:00Z,27.6250,-90.4410,15.2,200.0,17.8,-9999.0,'11111222,11111222,99999999' 
ADCP,ioos:station:wmo:42890:1,2011-01-02T02:44:00Z,27.6250,-90.4410,15.2,208.0,15.8,-9999.0,'11111222,11111222,99999999' 
ADCP,ioos:station:wmo:42890:1,2011-01-02T03:04:00Z,27.6250,-90.4410,15.2,206.0,14.0,-9999.0,'11111222,11111222,99999999' 
ADCP,ioos:station:wmo:42890:1,2011-01-02T03:24:00Z,27.6250,-90.4410,15.2,202.0,12.9,-9999.0,'11111222,11111222,99999999' 
ADCP,ioos:station:wmo:42890:1,2011-01-02T03:44:00Z,27.6250,-90.4410,15.2,212.0,15.3,-9999.0,'11111222,11111222,99999999' 
ADCP,ioos:station:wmo:42890:1,2011-01-02T04:04:00Z,27.6250,-90.4410,15.2,221.0,12.1,-9999.0,'11111222,11111222,99999999' 
ADCP,ioos:station:wmo:42890:1,2011-01-02T04:24:00Z,27.6250,-90.4410,15.2,222.0,10.8,-9999.0,'11111222,11111222,99999999' 
ADCP,ioos:station:wmo:42890:1,2011-01-02T04:44:00Z,27.6250,-90.4410,15.2,228.0,8.8,-99999.0,'1111122,1111122,1199999999' 
ADCP,ioos:station:wmo:42890:1,2011-01-02T05:04:00Z,27.6250,-90.4410,15.2,231.0,7.6,-9999.0,'11133222,11111222,99999999' 
ADCP,ioos:station:wmo:42890:1,2011-01-02T05:24:00Z,27.6250,-90.4410,15.2,226.0,7.0,-9999.0,'11133222,11111222,99999999' 
ADCP,ioos:station:wmo:42890:1,2011-01-02T05:44:00Z,27.6250,-90.4410,15.2,218.0,3.9,-9999.0,'11133222,11111222,99999999' 
ADCP,ioos:station:wmo:42890:1,2011-01-02T06:04:00Z,27.6250,-90.4410,15.2,190.0,4.6,-9999.0,'11133222,11111222,99999999' 
ADCP,ioos:station:wmo:42890:1,2011-01-02T06:24:00Z,27.6250,-90.4410,15.2,230.0,3.4,-9999.0,'11133222,11111222,99999999' 
ADCP,ioos:station:wmo:42890:1,2011-01-02T06:44:00Z,27.6250,-90.4410,15.2,277.0,5.4,-99999.0,'1111122,1111122,1199999999' 
ADCP,ioos:station:wmo:42890:1,2011-01-02T07:04:00Z,27.6250,-90.4410,15.2,289.0,3.4,-9999.0,'11133222,11111222,99999999' 
ADCP,ioos:station:wmo:42890:1,2011-01-02T07:24:00Z,27.6250,-90.4410,15.2,295.0,3.1,-9999.0,'11133222,11111222,99999999' 
ADCP,ioos:station:wmo:42890:1,2011-01-02T07:44:00Z,27.6250,-90.4410,15.2,56.0,4.1,-99999.0,'1111122,1111122,1199999999' 
ADCP,ioos:station:wmo:42890:1,2011-01-02T08:04:00Z,27.6250,-90.4410,15.2,285.0,5.7,-9999.0,'11133222,11111222,99999999' 
ADCP,ioos:station:wmo:42890:1,2011-01-02T08:24:00Z,27.6250,-90.4410,15.2,359.0,3.9,-9999.0,'11133222,11111222,99999999' 
ADCP,ioos:station:wmo:42890:1,2011-01-02T08:44:00Z,27.6250,-90.4410,15.2,323.0,8.1,-99999.0,'1111122,1111122,1199999999' 
ADCP,ioos:station:wmo:42890:1,2011-01-02T09:04:00Z,27.6250,-90.4410,15.2,350.0,6.8,-9999.0,'11133222,11111222,99999999' 
ADCP,ioos:station:wmo:42890:1,2011-01-02T09:24:00Z,27.6250,-90.4410,15.2,46.0,4.5,-9999.0,'11133222,11111222,99999999' 
ADCP,ioos:station:wmo:42890:1,2011-01-02T09:44:00Z,27.6250,-90.4410,15.2,322.0,7.1,-99999.0,'1111122,1111122,1199999999' 
ADCP,ioos:station:wmo:42890:1,2011-01-02T10:04:00Z,27.6250,-90.4410,15.2,333.0,7.4,-9999.0,'11133222,11111222,99999999' 
ADCP,ioos:station:wmo:42890:1,2011-01-02T10:24:00Z,27.6250,-90.4410,15.2,31.0,7.2,-9999.0,'11133222,11111222,99999999' 
ADCP,ioos:station:wmo:42890:1,2011-01-02T10:44:00Z,27.6250,-90.4410,15.2,358.0,5.6,-9999.0,'11133222,11111222,99999999' 
ADCP,ioos:station:wmo:42890:1,2011-01-02T11:04:00Z,27.6250,-90.4410,15.2,38.0,6.6,-9999.0,'11133222,11111222,99999999' 
ADCP,ioos:station:wmo:42890:1,2011-01-02T11:24:00Z,27.6250,-90.4410,15.2,27.0,4.0,-9999.0,'11133222,11111222,99999999' 
ADCP,ioos:station:wmo:42890:1,2011-01-02T11:44:00Z,27.6250,-90.4410,15.2,11.0,6.0,-9999.0,'11133222,11111222,99999999' 
ADCP,ioos:station:wmo:42890:1,2011-01-02T12:04:00Z,27.6250,-90.4410,15.2,54.0,7.6,-9999.0,'11133222,11111222,99999999' 
ADCP,ioos:station:wmo:42890:1,2011-01-02T12:24:00Z,27.6250,-90.4410,15.2,72.0,8.4,-9999.0,'11133222,11111222,99999999' 
ADCP,ioos:station:wmo:42890:1,2011-01-02T12:44:00Z,27.6250,-90.4410,15.2,72.0,10.7,-9999.0,'11111222,11111222,99999999' 
ADCP,ioos:station:wmo:42890:1,2011-01-02T13:04:00Z,27.6250,-90.4410,15.2,93.0,8.5,-9999.0,'11133222,11111222,99999999' 
ADCP,ioos:station:wmo:42890:1,2011-01-02T13:24:00Z,27.6250,-90.4410,15.2,88.0,8.3,-9999.0,'11133222,11111222,99999999' 
ADCP,ioos:station:wmo:42890:1,2011-01-02T13:44:00Z,27.6250,-90.4410,15.2,97.0,9.4,-9999.0,'11133222,11111222,99999999' 
ADCP,ioos:station:wmo:42890:1,2011-01-02T14:04:00Z,27.6250,-90.4410,15.2,112.0,7.9,-9999.0,'11133222,11111222,99999999' 
ADCP,ioos:station:wmo:42890:1,2011-01-02T14:24:00Z,27.6250,-90.4410,15.2,107.0,11.2,-9999.0,'11111222,11111222,99999999' 
ADCP,ioos:station:wmo:42890:1,2011-01-02T14:44:00Z,27.6250,-90.4410,15.2,129.0,7.7,-9999.0,'11133222,11111222,99999999' 
ADCP,ioos:station:wmo:42890:1,2011-01-02T15:04:00Z,27.6250,-90.4410,15.2,119.0,12.8,-9999.0,'11111222,11111222,99999999' 
ADCP,ioos:station:wmo:42890:1,2011-01-02T15:24:00Z,27.6250,-90.4410,15.2,146.0,8.8,-9999.0,'11133222,11111222,99999999' 
ADCP,ioos:station:wmo:42890:1,2011-01-02T15:44:00Z,27.6250,-90.4410,15.2,142.0,10.0,-99999.0,'1111122,1111122,1199999999' 
ADCP,ioos:station:wmo:42890:1,2011-01-02T16:04:00Z,27.6250,-90.4410,15.2,163.0,9.6,-9999.0,'11133222,11111222,99999999' 
ADCP,ioos:station:wmo:42890:1,2011-01-02T16:24:00Z,27.6250,-90.4410,15.2,155.0,12.7,-9999.0,'11111222,11111222,99999999' 
ADCP,ioos:station:wmo:42890:1,2011-01-02T16:44:00Z,27.6250,-90.4410,15.2,166.0,14.7,-9999.0,'11111222,11111222,99999999' 
ADCP,ioos:station:wmo:42890:1,2011-01-02T17:04:00Z,27.6250,-90.4410,15.2,153.0,17.3,-9999.0,'11111222,11111222,99999999' 
ADCP,ioos:station:wmo:42890:1,2011-01-02T17:24:00Z,27.6250,-90.4410,15.2,168.0,15.2,-9999.0,'11111222,11111222,99999999' 
ADCP,ioos:station:wmo:42890:1,2011-01-02T17:44:00Z,27.6250,-90.4410,15.2,166.0,16.1,-99999.0,'1111122,1111122,1199999999' 
ADCP,ioos:station:wmo:42890:1,2011-01-02T18:04:00Z,27.6250,-90.4410,15.2,184.0,17.1,-9999.0,'11111222,11111222,99999999' 
ADCP,ioos:station:wmo:42890:1,2011-01-02T18:24:00Z,27.6250,-90.4410,15.2,178.0,16.6,-9999.0,'11111222,11111222,99999999' 
ADCP,ioos:station:wmo:42890:1,2011-01-02T18:44:00Z,27.6250,-90.4410,15.2,175.0,16.2,-9999.0,'11111222,11111222,99999999' 
ADCP,ioos:station:wmo:42890:1,2011-01-02T19:04:00Z,27.6250,-90.4410,15.2,174.0,16.9,-9999.0,'11111222,11111222,99999999' 
ADCP,ioos:station:wmo:42890:1,2011-01-02T19:24:00Z,27.6250,-90.4410,15.2,174.0,18.1,-9999.0,'11111222,11111222,99999999' 
ADCP,ioos:station:wmo:42890:1,2011-01-02T19:44:00Z,27.6250,-90.4410,15.2,175.0,14.8,-99999.0,'1111122,1111122,1199999999' 
ADCP,ioos:station:wmo:42890:1,2011-01-02T20:04:00Z,27.6250,-90.4410,15.2,175.0,15.6,-9999.0,'11111222,11111222,99999999' 
ADCP,ioos:station:wmo:42890:1,2011-01-02T20:24:00Z,27.6250,-90.4410,15.2,164.0,16.1,-9999.0,'11111222,11111222,99999999' 
ADCP,ioos:station:wmo:42890:1,2011-01-02T20:44:00Z,27.6250,-90.4410,15.2,173.0,17.3,-99999.0,'1111122,1111122,1199999999' 
ADCP,ioos:station:wmo:42890:1,2011-01-02T21:04:00Z,27.6250,-90.4410,15.2,170.0,16.6,-9999.0,'11111222,11111222,99999999' 
ADCP,ioos:station:wmo:42890:1,2011-01-02T21:24:00Z,27.6250,-90.4410,15.2,175.0,15.9,-9999.0,'11111222,11111222,99999999' 
ADCP,ioos:station:wmo:42890:1,2011-01-02T21:44:00Z,27.6250,-90.4410,15.2,167.0,16.1,-99999.0,'1111122,1111122,1199999999' 
ADCP,ioos:station:wmo:42890:1,2011-01-02T22:04:00Z,27.6250,-90.4410,15.2,166.0,16.3,-9999.0,'11111222,11111222,99999999' 
ADCP,ioos:station:wmo:42890:1,2011-01-02T22:24:00Z,27.6250,-90.4410,15.2,160.0,16.1,-9999.0,'11111222,11111222,99999999' 
ADCP,ioos:station:wmo:42890:1,2011-01-02T22:44:00Z,27.6250,-90.4410,15.2,158.0,15.6,-9999.0,'11111222,11111222,99999999' 
ADCP,ioos:station:wmo:42890:1,2011-01-02T23:04:00Z,27.6250,-90.4410,15.2,168.0,15.6,-9999.0,'11111222,11111222,99999999' 
ADCP,ioos:station:wmo:42890:1,2011-01-02T23:24:00Z,27.6250,-90.4410,15.2,154.0,14.6,-9999.0,'11111222,11111222,99999999' 
ADCP,ioos:station:wmo:42890:1,2011-01-02T23:44:00Z,27.6250,-90.4410,15.2,146.0,16.0,-99999.0,'1111122,1111122,1199999999' 
ADCP,ioos:station:wmo:42890:1,2011-01-03T00:04:00Z,27.6250,-90.4410,15.2,149.0,11.9,-9999.0,'11111222,11111222,99999999' 
ADCP,ioos:station:wmo:42890:1,2011-01-03T00:24:00Z,27.6250,-90.4410,15.2,150.0,12.2,-9999.0,'11111222,11111222,99999999' 
ADCP,ioos:station:wmo:42890:1,2011-01-03T00:44:00Z,27.6250,-90.4410,15.2,150.0,12.0,-99999.0,'1111122,1111122,1199999999' 
ADCP,ioos:station:wmo:42890:1,2011-01-03T01:04:00Z,27.6250,-90.4410,15.2,150.0,12.9,-9999.0,'11111222,11111222,99999999' 
ADCP,ioos:station:wmo:42890:1,2011-01-03T01:24:00Z,27.6250,-90.4410,15.2,143.0,13.5,-9999.0,'11111222,11111222,99999999' 
ADCP,ioos:station:wmo:42890:1,2011-01-03T01:44:00Z,27.6250,-90.4410,15.2,145.0,13.7,-99999.0,'1111122,1111122,1199999999' 
ADCP,ioos:station:wmo:42890:1,2011-01-03T02:04:00Z,27.6250,-90.4410,15.2,176.0,10.7,-9999.0,'11111222,11111222,99999999' 
ADCP,ioos:station:wmo:42890:1,2011-01-03T02:24:00Z,27.6250,-90.4410,15.2,158.0,11.4,-9999.0,'11111222,11111222,99999999' 
ADCP,ioos:station:wmo:42890:1,2011-01-03T02:44:00Z,27.6250,-90.4410,15.2,159.0,13.0,-99999.0,'1111122,1111122,1199999999' 
ADCP,ioos:station:wmo:42890:1,2011-01-03T03:04:00Z,27.6250,-90.4410,15.2,160.0,11.3,-9999.0,'11111222,11111222,99999999' 
ADCP,ioos:station:wmo:42890:1,2011-01-03T03:24:00Z,27.6250,-90.4410,15.2,170.0,12.4,-9999.0,'11111222,11111222,99999999' 
ADCP,ioos:station:wmo:42890:1,2011-01-03T03:44:00Z,27.6250,-90.4410,15.2,170.0,13.3,-99999.0,'1111122,1111122,1199999999' 
ADCP,ioos:station:wmo:42890:1,2011-01-03T04:04:00Z,27.6250,-90.4410,15.2,163.0,10.7,-9999.0,'11111222,11111222,99999999' 
ADCP,ioos:station:wmo:42890:1,2011-01-03T04:24:00Z,27.6250,-90.4410,15.2,172.0,11.3,-9999.0,'11111222,11111222,99999999' 
ADCP,ioos:station:wmo:42890:1,2011-01-03T04:44:00Z,27.6250,-90.4410,15.2,183.0,8.7,-9999.0,'11133222,11111222,99999999' 
ADCP,ioos:station:wmo:42890:1,2011-01-03T05:04:00Z,27.6250,-90.4410,15.2,160.0,8.5,-9999.0,'11133222,11111222,99999999' 
ADCP,ioos:station:wmo:42890:1,2011-01-03T05:24:00Z,27.6250,-90.4410,15.2,207.0,7.9,-9999.0,'11133222,11111222,99999999' 
ADCP,ioos:station:wmo:42890:1,2011-01-03T05:44:00Z,27.6250,-90.4410,15.2,199.0,7.7,-99999.0,'1111122,1111122,1199999999' 
ADCP,ioos:station:wmo:42890:1,2011-01-03T06:04:00Z,27.6250,-90.4410,15.2,236.0,7.6,-9999.0,'11133222,11111222,99999999' 
ADCP,ioos:station:wmo:42890:1,2011-01-03T06:24:00Z,27.6250,-90.4410,15.2,253.0,9.3,-9999.0,'11133222,11111222,99999999' 
ADCP,ioos:station:wmo:42890:1,2011-01-03T06:44:00Z,27.6250,-90.4410,15.2,251.0,8.7,-99999.0,'1111122,1111122,1199999999' 
ADCP,ioos:station:wmo:42890:1,2011-01-03T07:04:00Z,27.6250,-90.4410,15.2,270.0,3.5,-9999.0,'11133222,11111222,99999999' 
ADCP,ioos:station:wmo:42890:1,2011-01-03T07:24:00Z,27.6250,-90.4410,15.2,281.0,8.5,-9999.0,'11133222,11111222,99999999' 
ADCP,ioos:station:wmo:42890:1,2011-01-03T07:44:00Z,27.6250,-90.4410,15.2,57.0,5.0,-9999.0,'11133222,11111222,99999999' 
ADCP,ioos:station:wmo:42890:1,2011-01-03T08:04:00Z,27.6250,-90.4410,15.2,317.0,2.3,-9999.0,'11133222,11111222,99999999' 
ADCP,ioos:station:wmo:42890:1,2011-01-03T08:24:00Z,27.6250,-90.4410,15.2,260.0,4.8,-9999.0,'11133222,11111222,99999999' 
ADCP,ioos:station:wmo:42890:1,2011-01-03T08:44:00Z,27.6250,-90.4410,15.2,298.0,7.3,-9999.0,'11133222,11111222,99999999' 
ADCP,ioos:station:wmo:42890:1,2011-01-03T09:04:00Z,27.6250,-90.4410,15.2,4.0,2.7,-9999.0,'11133222,11111222,99999999' 
ADCP,ioos:station:wmo:42890:1,2011-01-03T09:24:00Z,27.6250,-90.4410,15.2,342.0,5.1,-9999.0,'11133222,11111222,99999999' 
ADCP,ioos:station:wmo:42890:1,2011-01-03T09:44:00Z,27.6250,-90.4410,15.2,30.0,7.2,-99999.0,'1111122,1111122,1199999999' 
ADCP,ioos:station:wmo:42890:1,2011-01-03T10:04:00Z,27.6250,-90.4410,15.2,327.0,6.4,-9999.0,'11133222,11111222,99999999' 
ADCP,ioos:station:wmo:42890:1,2011-01-03T10:24:00Z,27.6250,-90.4410,15.2,332.0,7.2,-9999.0,'11133222,11111222,99999999' 
ADCP,ioos:station:wmo:42890:1,2011-01-03T10:44:00Z,27.6250,-90.4410,15.2,319.0,7.8,-9999.0,'11133222,11111222,99999999' 
ADCP,ioos:station:wmo:42890:1,2011-01-03T11:04:00Z,27.6250,-90.4410,15.2,343.0,6.6,-9999.0,'11133222,11111222,99999999' 
ADCP,ioos:station:wmo:42890:1,2011-01-03T11:24:00Z,27.6250,-90.4410,15.2,38.0,7.3,-9999.0,'11133222,11111222,99999999' 
ADCP,ioos:station:wmo:42890:1,2011-01-03T11:44:00Z,27.6250,-90.4410,15.2,346.0,8.9,-99999.0,'1111122,1111122,1199999999' 
ADCP,ioos:station:wmo:42890:1,2011-01-03T12:04:00Z,27.6250,-90.4410,15.2,30.0,11.1,-9999.0,'11111222,11111222,99999999' 
ADCP,ioos:station:wmo:42890:1,2011-01-03T12:24:00Z,27.6250,-90.4410,15.2,351.0,5.4,-9999.0,'11133222,11111222,99999999' 
ADCP,ioos:station:wmo:42890:1,2011-01-03T12:44:00Z,27.6250,-90.4410,15.2,2.0,7.3,-99999.0,'1111122,1111122,1199999999' 
ADCP,ioos:station:wmo:42890:1,2011-01-03T13:04:00Z,27.6250,-90.4410,15.2,353.0,8.8,-9999.0,'11133222,11111222,99999999' 
ADCP,ioos:station:wmo:42890:1,2011-01-03T13:24:00Z,27.6250,-90.4410,15.2,21.0,7.1,-9999.0,'11133222,11111222,99999999' 
ADCP,ioos:station:wmo:42890:1,2011-01-03T13:44:00Z,27.6250,-90.4410,15.2,48.0,6.4,-99999.0,'1111122,1111122,1199999999' 
ADCP,ioos:station:wmo:42890:1,2011-01-03T14:04:00Z,27.6250,-90.4410,15.2,66.0,9.5,-9999.0,'11133222,11111222,99999999' 
ADCP,ioos:station:wmo:42890:1,2011-01-03T14:24:00Z,27.6250,-90.4410,15.2,76.0,10.4,-9999.0,'11111222,11111222,99999999' 
ADCP,ioos:station:wmo:42890:1,2011-01-03T14:44:00Z,27.6250,-90.4410,15.2,66.0,8.5,-99999.0,'1111122,1111122,1199999999' 
ADCP,ioos:station:wmo:42890:1,2011-01-03T15:04:00Z,27.6250,-90.4410,15.2,72.0,6.8,-9999.0,'11133222,11111222,99999999' 
ADCP,ioos:station:wmo:42890:1,2011-01-03T15:24:00Z,27.6250,-90.4410,15.2,103.0,4.3,-9999.0,'11133222,11111222,99999999' 
ADCP,ioos:station:wmo:42890:1,2011-01-03T15:44:00Z,27.6250,-90.4410,15.2,125.0,6.4,-99999.0,'1111122,1111122,1199999999' 
ADCP,ioos:station:wmo:42890:1,2011-01-03T16:04:00Z,27.6250,-90.4410,15.2,120.0,8.6,-9999.0,'11133222,11111222,99999999' 
ADCP,ioos:station:wmo:42890:1,2011-01-03T16:24:00Z,27.6250,-90.4410,15.2,135.0,9.3,-9999.0,'11133222,11111222,99999999' 
ADCP,ioos:station:wmo:42890:1,2011-01-03T16:44:00Z,27.6250,-90.4410,15.2,147.0,10.5,-99999.0,'1111122,1111122,1199999999' 
ADCP,ioos:station:wmo:42890:1,2011-01-03T17:04:00Z,27.6250,-90.4410,15.2,147.0,13.7,-9999.0,'11111222,11111222,99999999' 